Terminal Aerodrome Forecast
Issued by NWS

Home | Current Version | Previous Version | Text Only | Print | Product List | Glossary On
Versions: 1 2 3 4 5 6 7 8 9 10 11 12 13 14 15 16 17 18 19 20 21 22 23 24
000
FTAK31 PAFA 182320
TAFAFA
TAF
PAFA 182320Z 1900/2006 05004KT P6SM FEW080 BKN200
     FM191800 02002KT P6SM BKN100
     FM200300 29003KT P6SM OVC050=

USA.gov is the U.S. government's official web portal to all federal, state and local government web resources and services.